RH
94 87 80 78 77 76 73 72 72 73 73 73 72 70 67 66 64 63 63 63 65 67 69 69 68 67 66 64 63 62 63 64 64 63 60 57 54 51 50 49 50 51 52 52 53 55 56 58 60 61 61 59 57 54 50 47 45 44 42 40 38 38 38 39 40 41 42 45 46 46 47 50 50 47 42 37 36 34 31 30 29 29 30 31 31 32 33 33
99 94 88 83 82 81 80 79 78 76 73 72 72 71 69 67 66 63 62 61 63 65 68 70 71 71 69 68 66 64 65 68 70 70 67 63 60 57 54 52 52 52 53 53 54 56 58 61 64 65 65 63 61 59 56 53 50 49 47 45 44 43 44 44 46 47 47 51 54 54 53 56 60 60 55 48 46 45 40 38 37 36 35 35 35 35 35 34
101 98 93 89 85 83 82 83 83 81 77 73 73 73 71 69 67 66 64 62 62 62 64 66 68 70 70 69 68 66 67 71 72 73 71 68 66 63 60 58 55 54 54 54 55 58 61 63 66 68 69 68 65 63 62 59 56 55 53 51 49 49 49 49 51 51 51 55 59 60 58 58 62 67 66 59 55 55 51 47 46 45 43 43 43 44 43 42
104 101 98 95 92 87 84 84 84 85 82 78 75 75 74 73 69 67 66 65 63 63 62 62 63 64 67 68 68 68 70 73 73 74 73 71 70 68 66 64 61 59 56 55 56 58 62 65 68 70 71 71 69 68 68 64 62 61 59 57 55 55 54 53 54 54 55 58 62 64 63 60 62 69 74 69 64 64 61 55 52 51 51 52 53 54 53 52
107 104 101 99 97 95 91 88 86 86 86 83 81 78 75 74 72 70 68 66 65 64 63 62 62 62 62 64 65 67 71 75 74 74 73 72 73 72 71 69 67 64 60 57 56 58 62 65 68 70 72 73 71 71 72 70 67 67 66 65 63 61 60 58 58 58 59 60 63 67 66 63 64 71 76 73 70 71 70 65 59 56 56 56 56 58 57 56
108 107 104 102 100 99 99 96 92 90 89 89 88 84 80 77 75 74 71 68 66 64 64 63 62 62 61 61 62 64 68 72 73 74 74 74 75 74 73 72 71 69 66 62 59 59 62 65 68 71 73 73 72 71 73 72 71 71 71 71 71 69 65 63 62 62 64 64 65 67 66 65 68 75 77 73 70 74 76 72 66 63 62 61 58 57 57 56
106 107 106 106 104 102 102 102 99 96 94 92 92 92 88 83 80 79 76 73 69 66 64 64 62 62 61 60 61 61 65 67 69 72 73 76 77 75 74 74 74 73 71 68 64 61 62 65 68 71 72 72 72 71 72 73 72 72 73 75 76 74 70 67 67 67 69 70 67 65 66 67 71 76 76 70 67 72 78 75 69 69 69 67 63 59 56 54
101 103 103 105 105 105 104 104 104 102 100 97 96 96 94 89 85 83 82 78 75 72 67 65 64 63 62 62 61 61 64 66 67 69 71 75 76 73 73 74 75 76 76 75 72 68 66 66 68 69 71 71 71 71 71 73 72 73 75 77 80 79 74 70 70 71 72 71 66 62 66 69 71 74 73 68 63 65 72 73 68 68 71 72 69 63 57 53
101 101 101 101 103 104 105 106 106 106 105 103 100 98 98 95 90 86 86 83 79 77 74 69 67 65 65 64 64 64 65 67 67 68 69 72 72 72 72 72 74 77 79 81 80 77 74 71 69 68 70 71 71 71 71 71 71 73 78 81 82 81 78 74 72 72 72 67 61 59 66 72 72 73 73 69 63 59 62 66 63 62 66 70 69 65 60 56
101 101 101 100 101 101 102 104 105 107 108 108 107 103 102 101 97 91 87 87 83 81 79 77 73 69 68 67 66 67 67 69 69 67 67 69 69 70 71 69 72 77 81 84 85 85 83 80 75 72 72 71 71 72 72 71 70 74 80 82 82 81 80 79 78 78 72 63 59 61 68 74 73 73 74 72 65 58 57 58 56 57 61 64 63 61 59 56
102 102 101 101 101 100 100 101 102 104 106 108 109 108 107 106 104 100 94 90 88 85 82 81 79 75 71 69 68 67 68 71 71 67 67 68 69 70 69 68 69 75 81 86 89 90 90 88 83 79 77 73 72 73 73 71 70 71 76 79 81 82 82 83 85 82 72 63 61 64 69 72 71 71 74 72 66 60 59 56 52 53 55 57 58 57 56 54
103 104 104 103 102 101 100 100 100 100 102 103 104 106 108 108 108 107 103 96 92 90 87 85 84 82 78 74 71 69 70 73 72 71 69 69 71 71 68 66 67 72 79 85 91 93 95 94 90 87 83 77 75 75 74 70 68 70 72 75 78 80 83 85 84 77 69 66 64 67 70 70 68 70 73 72 65 62 61 56 51 50 52 53 54 53 53 51
102 104 108 108 103 103 102 101 100 100 101 101 101 101 103 106 109 110 108 103 96 92 91 90 89 88 85 82 78 75 74 75 74 74 73 72 72 73 70 67 66 69 75 82 91 95 98 97 94 91 86 84 82 77 75 68 65 70 72 74 77 80 86 84 76 72 70 69 66 68 72 71 67 68 73 71 66 63 61 56 52 50 50 51 52 51 51 49
100 101 107 109 105 105 104 103 101 100 100 100 100 100 100 101 104 108 110 108 101 95 92 92 92 92 91 90 86 83 83 81 79 78 78 77 76 76 74 71 68 68 72 78 88 97 100 100 98 95 90 91 90 80 74 66 63 69 73 79 83 85 86 76 69 71 72 72 71 70 72 71 67 66 71 71 67 64 60 57 54 51 50 50 52 52 49 47
100 100 103 105 106 106 105 105 103 101 100 100 100 100 100 100 100 103 106 109 107 101 95 92 91 90 93 97 95 92 92 90 88 85 85 85 81 78 75 73 72 72 73 74 83 94 100 101 101 101 97 95 96 86 73 64 64 70 78 92 95 84 77 70 68 72 72 74 78 77 75 72 66 63 68 71 71 66 60 58 56 52 51 52 53 51 48 45
101 100 101 102 103 104 105 107 108 106 102 101 100 100 100 100 100 100 101 106 110 109 102 97 93 91 94 100 100 101 101 99 96 93 93 91 86 81 75 73 76 78 79 78 80 88 97 100 102 107 104 101 99 86 69 65 71 79 88 101 96 76 69 70 72 72 72 75 79 81 79 74 67 63 66 71 71 67 63 60 57 54 53 54 54 50 47 46
100 100 100 101 101 101 103 106 111 110 106 104 102 100 100 100 100 100 100 100 106 111 109 106 101 95 97 102 104 105 104 105 106 102 98 95 90 84 79 78 81 84 87 85 83 84 91 97 100 105 107 108 99 77 66 73 83 89 96 99 90 76 71 70 71 70 71 75 77 80 80 75 69 65 67 69 68 68 66 62 58 57 55 54 54 50 48 49
100 100 100 100 100 100 100 102 105 105 104 106 104 101 101 101 100 102 104 100 100 105 108 111 108 100 100 104 107 107 104 106 109 107 103 100 97 92 90 88 88 90 92 93 91 86 87 92 99 103 105 106 92 72 71 84 91 94 96 94 88 82 75 70 69 68 68 72 76 78 78 77 74 70 66 66 67 68 67 63 61 61 58 55 54 50 49 53
101 101 100 100 100 100 100 101 101 101 102 102 101 102 102 102 101 102 107 105 101 101 103 106 106 101 101 105 107 106 105 106 106 104 102 102 102 101 102 100 97 95 95 97 97 94 89 89 96 102 103 98 84 74 79 89 93 93 94 93 89 86 81 74 69 66 65 68 71 74 77 80 80 75 68 66 67 67 65 63 64 63 58 54 52 50 51 55
100 101 101 101 100 100 101 101 100 101 102 102 101 103 102 101 100 101 106 108 104 101 99 98 99 99 101 104 107 106 104 103 102 101 101 102 105 107 107 106 104 102 100 98 98 99 94 92 99 101 99 92 80 77 84 90 93 90 89 90 89 89 85 77 70 65 62 64 68 72 77 82 79 73 74 74 69 67 65 63 67 66 59 53 50 51 54 58
98 99 100 100 100 100 100 100 100 101 102 103 103 103 101 101 101 99 102 107 106 103 99 97 98 97 97 101 103 104 101 98 98 100 102 103 102 103 106 107 107 106 105 98 96 99 93 96 104 100 96 92 84 85 87 87 89 89 88 87 89 91 85 78 74 68 62 64 71 74 75 81 76 66 73 82 74 68 68 65 70 69 60 56 54 55 57 61
99 99 100 100 100 100 100 100 100 100 101 101 101 102 101 101 102 100 100 102 103 104 102 100 102 101 101 101 101 102 100 99 101 101 102 103 100 101 103 105 104 103 105 99 96 95 90 97 103 95 94 92 86 89 87 84 88 90 88 86 90 91 85 78 75 72 65 63 72 77 74 79 81 67 64 77 79 73 71 68 70 69 63 59 60 62 62 63
100 99 100 100 100 100 100 100 100 100 100 100 101 102 100 100 102 101 100 100 100 103 103 103 104 104 105 105 105 105 104 103 105 104 105 105 103 102 101 103 99 95 100 101 95 91 89 98 99 90 91 89 83 85 86 86 87 88 87 86 91 91 83 76 75 77 71 64 70 77 75 81 90 76 61 68 75 73 71 70 70 70 67 65 64 67 69 69
101 100 100 100 100 100 99 100 100 100 100 100 101 101 101 100 101 101 101 100 99 102 103 104 104 102 102 104 105 105 104 105 104 104 108 106 103 100 98 101 95 90 98 99 92 87 86 96 99 90 88 86 79 80 84 84 83 85 86 86 87 87 83 78 78 80 74 66 70 75 74 85 100 89 69 67 67 66 69 70 69 70 71 72 71 72 76 79
102 101 100 101 101 100 101 100 100 101 101 101 100 101 101 100 100 101 102 100 98 101 103 104 104 105 105 103 103 102 101 102 102 103 105 102 101 99 97 98 92 89 96 95 87 83 83 95 100 87 82 81 75 78 83 81 78 80 83 87 84 82 85 82 76 74 71 69 74 74 70 84 106 100 83 77 71 70 76 74 71 69 68 71 73 76 82 87
102 103 101 102 101 100 101 100 100 101 101 101 100 100 100 101 101 99 102 101 97 101 104 103 104 105 107 106 105 104 100 99 103 104 102 100 101 99 95 93 90 88 93 90 82 81 89 100 98 84 78 77 75 82 87 78 69 70 86 96 86 78 85 85 80 74 67 67 72 73 68 74 97 106 99 93 81 78 86 85 80 74 69 70 73 79 85 86
102 100 95 98 100 99 100 100 101 100 100 101 101 99 99 102 101 98 101 96 89 99 106 103 103 103 104 107 108 105 98 99 108 105 99 101 100 96 91 91 95 94 93 90 78 79 94 102 96 87 78 75 77 83 86 76 62 68 92 102 87 80 86 88 87 79 68 63 61 71 81 75 81 101 108 103 92 89 94 90 86 84 82 84 85 86 86 83
102 97 92 97 101 99 100 101 101 100 102 104 102 99 99 102 100 98 98 85 77 96 108 103 103 104 104 105 107 107 99 101 112 105 98 99 94 89 88 91 99 99 94 90 82 84 97 100 95 88 78 76 82 81 78 71 62 70 89 96 91 87 87 87 85 80 74 63 55 73 98 91 81 91 99 105 105 102 102 96 90 93 95 96 96 92 89 86
100 98 96 100 103 101 100 100 100 100 102 105 105 102 103 103 100 101 98 79 69 87 101 103 105 103 103 103 103 106 104 104 111 108 102 97 90 89 90 91 97 100 96 91 87 88 98 100 91 82 77 80 84 80 74 70 66 72 82 89 92 89 86 84 81 81 76 65 68 89 107 103 89 79 82 103 116 105 100 101 97 99 100 100 101 99 98 95
96 97 97 98 102 102 100 99 99 101 102 104 105 105 106 104 102 105 95 80 82 86 85 96 108 105 102 104 103 102 104 106 109 110 105 102 100 98 98 96 95 98 97 91 87 86 93 95 86 79 78 77 78 75 73 73 73 75 78 81 85 84 83 79 78 86 83 77 92 106 108 102 85 74 83 105 116 105 97 102 102 103 104 102 102 101 101 102
93 93 95 98 104 103 99 98 99 103 103 102 105 106 106 104 104 99 83 86 104 97 83 94 109 110 106 105 102 97 98 101 105 108 106 107 108 102 100 98 92 91 89 85 85 86 87 89 86 82 76 71 72 73 73 75 76 76 76 77 77 77 78 79 83 91 90 88 97 103 106 98 79 81 98 104 109 109 104 104 103 103 104 102 101 101 100 101
93 94 98 99 104 103 98 97 100 105 102 99 103 102 102 104 97 83 79 96 104 86 85 104 109 106 105 106 106 101 98 98 99 102 104 106 107 104 100 96 91 88 85 85 87 87 87 89 89 86 81 78 77 75 75 76 77 76 76 75 76 78 78 80 85 90 89 87 87 90 96 91 83 94 106 104 104 108 106 104 103 103 102 101 101 101 100 100
94 96 101 101 103 102 98 97 98 101 99 97 98 95 98 97 83 79 92 102 90 74 87 105 105 102 101 104 109 108 107 106 102 102 101 99 98 99 98 94 94 91 84 85 87 85 85 88 92 93 93 93 87 83 81 78 78 79 78 78 79 83 81 81 88 90 85 82 82 86 86 82 89 103 108 105 103 103 104 104 103 103 102 101 102 102 101 102
96 95 97 100 102 100 99 99 97 96 96 97 95 94 96 85 76 91 102 91 81 85 91 90 92 102 104 102 103 103 107 109 108 108 103 95 87 85 87 86 88 88 80 78 80 81 80 83 90 96 97 98 96 93 90 87 88 86 84 84 83 89 91 87 88 85 81 83 85 87 85 84 97 108 107 106 104 103 103 102 103 105 103 103 103 103 101 101
102 98 96 98 101 101 101 101 99 98 96 95 94 92 87 76 73 86 87 78 79 86 89 84 81 90 100 103 101 100 105 106 106 110 107 102 92 82 79 76 76 80 77 74 77 82 83 83 91 98 99 99 99 100 98 95 94 89 87 87 88 99 101 85 78 77 77 80 81 85 90 94 103 107 105 105 105 106 104 102 104 105 105 105 103 102 102 102
102 102 100 98 100 103 103 101 101 101 99 101 100 86 75 73 74 69 65 73 81 82 88 88 79 78 86 99 103 101 102 102 103 107 106 105 101 89 80 74 72 74 76 79 81 84 86 86 92 101 103 102 101 101 101 96 91 89 92 95 97 102 96 81 75 76 75 72 73 83 94 101 106 105 104 104 105 107 107 104 103 103 104 105 103 104 105 105
99 101 102 99 99 102 102 100 102 102 100 104 104 89 76 74 74 67 65 75 83 88 97 93 80 75 75 83 97 102 102 101 100 103 104 104 103 99 95 89 80 74 78 85 83 82 86 85 88 96 97 100 104 104 102 98 95 96 99 101 101 95 87 81 79 80 83 80 77 82 88 99 109 106 104 105 105 106 107 104 102 103 102 101 103 107 107 106
100 100 103 101 99 100 100 99 101 102 101 103 103 93 82 75 72 69 72 82 90 96 103 100 89 82 74 71 79 93 103 105 102 100 101 103 104 102 103 102 95 87 86 88 83 84 90 83 77 81 81 84 92 96 99 102 104 104 103 102 99 90 85 87 86 88 93 89 86 87 85 91 102 104 104 106 104 103 103 103 104 105 104 102 104 107 107 107
101 99 103 105 102 100 100 101 101 101 101 102 100 93 87 83 76 68 66 76 90 96 99 103 102 94 85 78 74 78 91 101 105 104 100 100 102 101 101 104 106 100 97 98 91 83 82 74 63 65 71 72 71 74 85 98 104 105 102 100 100 96 96 99 98 99 98 91 91 94 90 91 100 104 106 106 104 101 100 103 106 106 104 103 104 107 108 106
104 99 98 103 105 101 99 101 102 100 101 100 94 93 96 90 74 62 60 65 77 89 96 103 109 103 94 92 84 77 80 86 95 102 104 104 102 99 98 102 109 107 106 108 97 78 74 75 70 67 69 68 65 66 76 85 91 95 94 94 98 102 102 99 99 104 106 100 96 92 85 85 91 99 106 107 105 104 103 105 106 103 103 104 104 105 105 102
103 100 97 102 106 101 99 101 100 102 105 96 87 93 98 91 75 62 63 65 67 80 94 103 109 106 102 102 96 86 80 77 78 88 99 105 106 104 99 102 110 111 109 108 95 78 74 74 71 65 63 69 75 78 81 79 81 87 85 80 84 93 98 99 99 104 106 99 90 80 72 73 82 94 106 110 107 105 104 103 103 102 102 103 102 102 101 100
100 100 98 103 105 101 101 101 98 104 106 92 89 100 95 85 85 78 74 76 73 77 92 102 105 104 102 103 103 98 89 76 68 73 84 95 104 108 105 104 111 112 110 107 96 85 78 72 70 67 68 77 83 82 82 80 78 79 77 80 91 100 106 105 97 93 94 90 88 84 75 77 92 101 104 107 108 107 106 104 104 102 101 102 102 102 104 102
102 101 100 102 103 101 103 102 98 103 106 90 85 98 95 87 89 84 78 83 85 88 96 100 100 98 97 102 107 107 101 90 74 70 80 91 100 109 109 106 110 111 107 106 102 98 94 86 81 77 74 75 77 75 77 80 81 84 91 103 108 104 102 97 86 80 80 84 92 91 78 79 96 103 104 107 108 107 107 106 106 105 103 104 104 103 103 102
101 102 102 100 100 104 107 106 101 102 105 95 80 80 91 98 99 92 85 83 85 94 100 99 98 96 92 99 108 107 106 104 93 82 84 88 90 97 102 99 99 103 104 105 105 107 108 101 90 81 73 70 72 77 82 91 98 101 105 106 100 96 97 93 87 79 70 74 84 82 79 89 98 96 100 107 107 104 105 104 104 105 103 104 106 102 99 101
100 102 101 97 99 106 106 102 102 103 104 101 91 80 79 88 97 102 100 91 84 88 90 90 97 98 92 95 103 103 101 103 103 99 96 92 87 86 89 88 87 94 104 111 112 111 110 105 96 89 82 74 74 82 91 101 106 100 95 95 98 101 99 91 85 72 61 71 79 75 82 98 97 91 99 108 107 104 104 103 106 107 102 100 101 98 98 103
101 101 100 99 100 104 103 98 101 106 102 100 103 97 85 80 85 93 100 100 98 97 91 84 87 91 90 91 94 95 95 97 103 106 104 104 102 96 92 89 82 81 88 97 105 109 110 108 103 100 97 89 85 88 92 99 102 96 90 92 94 93 88 81 73 64 67 77 74 73 88 98 94 96 103 105 105 107 107 105 104 101 95 92 93 95 101 105
102 100 100 102 102 100 101 102 103 102 101 101 103 101 98 94 89 87 87 90 96 101 98 89 80 77 81 86 91 94 97 101 105 106 105 105 107 106 102 96 87 79 76 79 86 97 108 111 106 103 102 99 97 95 93 98 104 105 102 98 93 89 85 77 68 74 88 81 64 74 97 103 101 103 104 103 105 107 106 102 99 95 93 93 95 100 106 106
100 100 99 99 101 100 99 104 105 101 101 104 99 96 101 103 96 87 79 77 82 87 90 88 77 68 70 78 86 93 99 102 101 100 102 104 105 106 104 102 99 93 87 86 87 92 101 105 105 105 104 102 100 94 91 95 100 104 107 105 100 96 90 81 76 87 96 82 73 90 104 106 108 106 104 105 102 101 103 103 101 98 97 100 102 104 107 105
98 101 101 98 99 100 100 102 104 102 102 103 99 97 101 101 98 94 87 81 78 74 74 77 73 70 71 71 75 84 93 97 96 97 101 103 104 105 104 105 106 102 99 100 100 100 102 101 100 101 97 96 97 93 89 89 89 93 100 102 102 98 90 85 85 94 101 97 99 107 105 103 106 103 104 107 103 103 104 101 100 101 100 103 104 104 105 107
99 101 102 102 100 98 101 103 102 102 102 100 101 103 102 100 102 102 98 93 88 81 74 71 71 76 80 77 74 74 78 84 90 98 100 97 96 99 100 101 102 101 102 105 106 107 107 103 98 95 89 86 87 85 82 79 78 86 93 94 93 88 84 90 96 102 109 107 105 107 104 102 104 105 109 110 105 105 103 99 101 105 102 101 103 105 107 108
102 100 99 102 102 98 100 101 100 102 101 98 99 102 102 103 104 103 101 98 98 97 88 77 77 82 84 81 74 67 67 75 84 91 91 86 83 86 90 93 95 97 98 101 103 104 103 99 93 89 83 78 76 76 75 74 77 81 80 79 81 81 86 99 106 106 108 106 103 104 102 101 104 105 102 99 97 100 104 104 106 106 102 101 105 109 107 104
106 103 98 100 103 100 99 100 101 103 100 96 97 100 102 103 102 104 106 100 96 94 87 81 83 85 80 74 68 63 65 72 76 78 79 77 74 75 82 87 89 92 93 95 98 97 94 89 84 81 78 74 76 79 80 83 81 70 62 67 77 81 86 95 101 104 109 109 106 101 97 98 103 100 97 98 100 100 101 102 102 103 103 103 104 102 95 92
Wind_Speed
48 47 47 46 45 45 44 44 43 43 43 42 42 41 40 39 39 38 37 36 35 34 33 32 31 30 29 28 28 27 26 26 25 25 25 24 24 23 23 22 21 21 20 20 20 20 20 19 19 18 18 18 18 18 18 18 17 17 16 15 14 12 12 11 10 10 10 10 11 11 10 11 12 13 13 13 12 13 13 12 12 12 12 12 12 12 13 13
50 49 48 48 47 46 46 45 45 45 44 44 43 43 42 41 40 40 39 38 37 36 35 34 33 32 31 30 29 29 28 27 27 26 26 25 25 24 23 23 22 22 21 21 21 21 21 20 20 20 19 19 19 19 19 19 18 17 17 16 15 13 13 12 11 12 12 12 12 12 12 12 12 13 14 14 13 14 14 13 13 13 13 13 13 13 14 14
51 51 50 49 49 48 47 47 47 46 46 45 44 44 44 43 42 41 40 40 39 38 37 36 35 34 33 32 31 31 30 29 28 28 28 27 26 25 24 24 23 23 23 22 22 22 22 21 21 21 21 20 20 19 20 19 19 18 17 17 16 14 14 13 13 14 13 13 13 14 14 13 13 13 15 14 13 13 14 13 13 13 13 13 13 14 14 14
53 52 51 51 50 50 49 49 48 48 48 47 46 45 45 44 44 42 42 41 40 39 39 38 38 36 35 34 33 33 31 31 31 30 29 28 27 26 25 25 24 24 24 24 23 23 23 23 22 22 22 21 21 21 21 20 20 19 18 18 17 16 15 15 15 15 15 15 15 15 15 15 15 14 15 15 14 14 15 15 14 13 13 13 13 14 15 15
54 53 53 52 52 51 50 50 50 49 49 48 48 47 46 46 45 44 43 42 42 41 40 40 39 38 37 36 35 34 33 33 33 32 31 30 29 28 27 26 25 25 25 25 25 24 24 24 24 23 23 23 22 22 22 21 21 20 20 19 18 17 17 17 16 17 17 17 16 16 16 17 17 16 16 17 16 15 16 16 16 15 14 14 15 16 16 16
55 54 54 53 53 52 52 51 51 50 50 50 49 49 48 47 46 46 45 44 44 43 42 41 40 40 39 38 37 36 35 35 35 33 32 31 30 29 28 27 26 26 26 26 26 26 26 25 25 25 25 24 24 23 23 23 22 21 21 20 20 19 19 18 18 18 19 18 18 17 18 19 19 18 18 19 18 17 17 18 18 17 17 17 17 18 18 18
55 55 54 54 53 53 53 53 52 52 51 51 50 50 50 49 48 47 47 46 45 44 43 43 42 41 40 39 39 38 37 37 36 35 34 33 32 31 29 28 27 26 26 27 27 27 27 27 27 27 26 26 25 25 24 24 23 23 22 21 21 21 21 20 20 20 20 20 19 19 19 21 20 19 20 22 21 18 18 19 19 18 18 19 19 20 20 20
56 56 55 54 54 53 53 53 53 53 52 52 52 51 51 51 50 49 48 47 46 46 45 44 43 43 42 41 40 39 39 39 37 36 36 34 34 32 31 30 28 27 27 27 28 28 28 28 29 28 28 28 27 26 25 25 25 24 23 22 22 22 22 22 22 22 22 21 20 20 20 21 21 21 22 23 22 19 19 20 21 19 18 19 20 21 21 20
58 57 56 55 54 54 53 53 53 53 53 53 53 52 52 52 51 50 50 49 48 47 46 45 45 44 43 42 41 40 40 40 39 38 37 36 35 34 33 31 29 28 28 28 28 29 29 30 30 30 30 30 29 28 27 26 26 25 24 23 23 23 23 23 24 24 24 22 21 19 19 20 21 22 23 24 24 21 19 21 21 19 18 19 20 21 21 20
59 58 57 56 55 55 54 54 53 53 53 54 54 54 53 53 52 52 51 50 49 48 47 46 46 45 44 43 42 41 40 40 40 40 39 38 37 36 35 33 31 29 29 29 29 29 30 31 31 31 31 31 30 29 28 28 27 26 25 24 23 24 24 24 26 26 25 23 21 19 19 20 21 22 23 24 24 21 20 21 20 19 18 19 20 20 20 19
60 60 59 58 57 56 55 54 54 53 53 54 54 54 54 54 54 53 52 51 50 49 48 47 47 46 45 44 43 42 41 41 42 41 40 39 39 38 37 36 33 31 30 30 30 30 31 31 32 32 33 32 31 30 30 29 29 27 26 25 24 24 25 26 27 26 25 24 22 20 20 21 22 23 24 24 23 21 21 21 20 19 19 19 20 21 20 19
61 61 61 60 59 57 56 55 54 54 54 54 54 54 55 55 54 54 54 53 52 51 50 49 48 47 46 45 44 43 42 42 42 41 40 40 40 40 39 38 36 33 31 31 31 31 32 32 33 33 33 33 32 32 31 31 30 29 27 26 25 25 27 29 28 26 25 24 23 21 21 22 22 23 24 24 23 22 21 21 20 19 19 20 21 21 21 21
60 61 62 62 61 60 59 57 56 55 54 54 54 54 55 55 55 55 54 54 53 52 51 50 49 48 47 46 46 44 43 43 43 42 42 41 40 41 40 39 38 35 33 32 32 32 33 33 33 34 34 34 34 33 33 32 30 29 28 27 27 27 29 30 28 26 25 24 24 22 22 23 23 23 23 25 24 22 21 21 21 20 20 21 22 23 23 23
58 59 61 62 62 62 61 60 58 57 56 55 55 55 55 55 55 55 55 55 54 53 52 51 50 49 48 47 47 45 44 44 43 43 43 42 42 41 41 40 38 37 35 34 33 34 34 35 34 35 35 34 34 34 34 33 31 29 28 28 29 30 31 31 28 26 26 24 24 24 23 24 25 23 23 25 24 23 22 22 22 22 22 22 23 23 23 23
60 59 60 61 62 63 62 62 61 60 59 57 57 56 56 55 55 55 56 55 55 54 53 52 51 50 49 49 48 46 45 45 44 44 43 43 43 43 42 41 39 38 37 36 35 35 36 36 36 35 36 35 35 35 34 32 31 29 27 28 32 34 32 30 28 27 26 25 25 25 25 25 26 24 24 25 25 24 24 23 23 23 23 22 23 23 23 23
63 62 61 61 62 63 63 63 62 62 61 60 59 58 58 57 56 56 56 56 56 54 54 53 52 51 49 50 50 48 47 46 45 45 44 45 44 44 43 41 39 38 38 38 38 37 37 37 36 36 36 37 37 37 34 31 30 29 28 31 36 35 32 30 29 28 26 25 25 25 26 26 27 26 25 25 25 25 25 25 25 25 24 23 22 23 23 23
65 64 62 62 62 62 62 63 63 63 62 61 60 60 60 59 58 58 57 57 56 56 55 54 54 52 50 51 52 50 49 48 47 46 46 46 45 45 44 41 41 40 40 40 39 40 39 38 37 36 37 39 39 38 33 30 31 30 32 35 37 35 33 32 31 29 27 26 26 26 27 28 27 27 26 26 26 26 27 27 27 26 25 23 23 23 23 24
66 65 64 63 62 62 62 63 63 63 63 62 61 61 60 60 60 59 58 58 57 57 56 55 56 54 52 52 53 53 52 50 49 49 48 47 46 46 45 43 43 42 42 42 42 42 41 39 38 37 39 41 41 38 33 31 32 32 34 37 37 36 35 33 31 30 28 26 27 27 28 29 28 28 28 27 27 28 29 29 28 27 26 25 24 25 25 25
68 67 66 65 64 62 62 62 62 63 63 63 62 62 61 61 61 60 60 59 58 58 58 57 57 56 53 53 54 55 53 52 51 50 49 48 47 47 47 46 45 45 45 44 44 44 42 40 38 39 43 43 41 38 34 33 35 34 35 37 37 37 37 35 32 31 29 27 27 27 28 30 30 30 29 28 29 30 30 29 29 29 28 26 26 27 27 27
69 69 68 67 66 64 63 62 61 62 63 63 63 63 62 61 61 61 61 60 60 61 60 59 58 56 54 54 55 56 55 54 53 51 50 50 49 49 49 48 48 48 47 47 46 45 44 40 40 45 46 43 41 39 36 36 37 36 35 37 38 38 39 37 34 31 29 28 28 28 29 30 32 31 29 29 30 31 31 30 30 31 30 28 28 28 29 29
71 70 70 69 68 67 66 64 62 62 62 62 63 64 63 63 63 62 62 62 62 62 61 59 58 57 55 55 56 57 56 55 54 53 52 52 52 51 50 51 50 50 50 50 48 47 45 40 43 49 47 43 42 41 39 39 38 37 37 38 38 39 41 40 36 33 30 28 29 30 30 31 33 32 30 31 32 32 33 32 31 32 31 30 30 30 31 31
71 71 71 71 70 69 68 66 65 64 63 62 63 64 65 65 65 63 63 64 63 62 61 59 58 57 56 56 56 57 57 55 55 55 54 54 54 53 53 53 53 52 52 51 49 48 46 43 47 51 47 45 44 42 42 41 39 39 39 38 38 40 43 42 37 34 33 30 29 31 31 31 34 34 31 31 33 33 33 33 33 33 32 32 32 32 33 33
70 71 71 72 72 71 70 69 68 66 64 63 64 65 66 66 66 65 65 64 62 62 61 59 58 57 56 56 56 57 57 56 56 55 56 56 55 56 55 56 56 54 53 53 51 50 47 45 49 51 49 47 46 44 44 43 42 42 41 39 39 42 44 42 38 37 36 32 30 32 31 30 34 36 33 33 34 35 35 34 33 33 34 34 34 34 35 36
70 71 72 72 72 72 71 71 69 67 66 66 67 68 67 67 66 66 66 65 62 61 61 59 59 57 56 56 57 57 56 56 56 55 57 58 58 58 57 58 58 55 54 55 54 52 47 46 50 52 50 49 47 46 46 45 44 43 42 42 42 43 44 43 40 40 39 35 32 34 32 30 35 38 36 36 36 36 36 36 35 35 36 37 37 37 38 38
74 74 75 74 73 72 73 72 69 69 69 69 70 71 69 67 67 67 67 66 62 59 60 60 58 57 57 57 57 57 57 57 56 56 59 60 59 60 59 59 59 56 56 57 56 52 47 46 51 54 52 50 49 48 48 48 46 45 44 44 45 44 44 44 43 42 40 37 36 37 33 30 35 40 38 38 39 38 38 38 38 38 38 39 40 40 41 41
78 79 79 79 77 75 74 71 70 72 72 72 74 74 71 69 69 68 68 68 62 57 59 60 59 58 57 57 58 59 60 57 56 58 60 61 61 61 60 59 59 58 58 59 57 52 48 49 54 55 52 51 50 48 50 51 49 45 44 46 48 46 45 46 45 45 42 39 37 39 36 31 33 40 42 42 41 39 39 40 40 41 41 41 42 43 44 45
82 83 84 82 80 79 75 72 73 74 73 74 76 75 73 72 72 70 71 71 62 55 57 60 59 58 57 58 60 62 61 55 57 61 61 63 63 63 61 59 59 59 59 60 57 52 51 53 55 55 54 52 51 51 53 53 50 45 46 50 50 47 47 47 47 47 45 41 38 38 41 36 33 38 44 46 45 41 42 43 42 43 43 44 45 45 47 48
85 87 87 85 83 82 79 76 75 75 74 76 78 76 75 75 74 73 76 74 60 52 55 58 59 59 59 60 62 63 60 57 59 62 63 65 64 63 62 60 60 61 61 60 57 53 53 55 56 56 55 53 53 54 54 54 51 47 49 52 51 50 49 49 48 47 46 44 38 37 44 43 36 38 43 47 48 46 46 46 44 44 45 45 47 47 49 50
86 87 86 86 86 86 84 80 76 75 77 78 79 78 77 77 76 76 79 74 58 51 54 56 58 60 60 62 63 63 62 60 61 62 65 66 64 64 63 62 62 62 61 61 58 54 54 57 58 58 56 55 55 56 56 55 52 50 52 52 53 53 52 51 49 48 47 43 38 40 47 48 41 38 39 45 52 52 49 49 47 47 48 47 48 49 51 52
88 86 86 86 86 88 88 84 79 78 80 81 82 82 81 81 78 80 80 68 54 52 54 55 57 58 60 62 63 64 64 64 63 64 66 66 65 65 64 64 64 63 62 61 58 56 56 59 60 58 58 57 57 57 56 55 54 53 53 54 54 55 54 53 50 49 48 41 40 45 49 51 45 38 37 44 54 56 51 51 51 50 50 50 51 53 54 55
90 88 88 88 87 88 89 86 82 82 84 85 86 87 86 84 84 85 76 61 54 55 56 57 57 58 61 63 64 65 66 66 66 66 67 67 68 67 65 66 66 64 62 61 59 59 59 59 60 60 60 58 58 58 57 56 56 55 55 55 55 55 54 53 50 50 49 44 44 47 50 52 46 39 41 45 53 57 55 54 54 53 53 53 54 55 56 57
93 90 90 91 90 89 87 85 84 86 88 89 90 91 89 89 90 84 70 59 59 60 57 55 55 58 63 65 67 67 67 68 68 68 69 69 69 67 67 66 65 64 62 60 61 61 60 59 59 60 60 60 60 59 57 57 57 56 56 55 55 55 54 53 52 53 52 49 48 49 51 51 45 42 46 48 51 56 57 56 56 55 55 56 57 57 58 58
97 93 92 92 93 91 88 86 86 88 90 91 93 93 94 95 91 79 68 63 64 61 57 55 55 58 62 64 67 69 70 71 70 71 71 71 70 68 67 65 64 64 63 61 61 61 59 58 58 58 59 61 61 59 58 58 57 57 56 55 55 56 55 53 53 55 54 52 50 51 52 49 44 45 50 51 51 54 57 58 57 57 57 57 58 59 59 59
99 97 95 94 94 92 88 87 87 89 92 93 94 95 98 98 87 75 71 70 68 64 61 61 61 62 62 63 65 68 72 73 73 74 74 73 72 69 68 67 65 66 65 62 61 60 59 57 58 58 59 60 60 59 58 56 56 56 56 56 54 54 56 55 55 55 53 52 51 51 50 47 45 48 52 54 53 54 56 58 58 57 58 58 59 60 60 59
102 101 99 97 95 91 88 87 86 88 92 94 96 97 99 95 83 75 75 74 72 68 65 67 68 67 65 65 66 69 72 73 74 76 75 75 74 71 70 68 67 67 67 63 61 60 60 57 57 59 59 59 58 58 57 56 56 56 56 56 54 55 60 59 56 55 54 53 51 50 49 48 49 50 51 53 55 56 57 56 57 57 58 59 60 60 60 59
105 104 103 100 93 89 88 89 88 89 91 94 98 100 96 87 79 78 78 77 76 72 71 73 74 72 70 69 69 71 73 74 75 77 77 77 75 72 70 69 70 69 67 66 63 61 60 57 56 58 58 58 58 58 57 57 57 57 57 57 57 60 62 60 57 56 56 55 50 49 49 50 52 51 50 52 55 57 57 56 56 57 58 60 61 60 61 61
109 107 106 103 94 89 90 91 92 95 96 98 101 99 91 82 80 80 79 79 78 76 77 79 78 77 75 73 73 73 75 76 77 77 78 78 76 73 70 71 72 70 68 69 66 62 60 58 56 58 58 57 58 58 57 58 58 57 58 59 61 63 62 60 59 56 57 56 52 51 50 51 52 51 51 55 56 57 57 56 57 58 60 61 61 62 63 64
110 108 106 104 98 94 93 93 94 97 100 102 103 98 89 82 81 80 78 78 78 78 81 82 81 80 79 77 75 75 77 78 77 78 78 78 77 74 72 73 73 70 69 71 68 62 62 62 59 59 59 59 58 58 56 57 59 59 59 60 62 62 60 60 59 56 57 57 54 53 52 51 52 52 53 57 57 57 57 57 58 60 62 62 63 64 66 67
109 109 106 103 102 99 98 98 99 100 103 104 102 95 86 82 82 82 80 76 76 79 82 82 82 83 82 81 79 78 79 78 77 78 78 78 77 74 73 74 73 71 71 72 70 65 65 66 62 59 61 62 60 58 57 58 61 61 60 60 61 61 61 61 59 57 59 57 54 55 53 51 52 53 55 57 58 58 58 58 60 62 63 64 65 67 69 71
108 110 105 102 103 103 102 103 106 109 109 106 101 93 86 86 88 86 83 79 77 79 80 80 82 84 83 83 83 81 81 81 78 78 77 76 75 73 71 72 73 72 73 74 73 68 66 67 64 61 62 62 60 59 60 61 61 61 61 60 61 62 64 63 59 59 60 59 56 56 52 50 51 53 55 58 58 59 59 60 62 64 65 67 68 70 72 73
106 109 104 102 105 106 106 109 112 114 113 107 101 94 90 93 93 89 87 85 82 79 77 77 80 82 80 81 84 83 84 84 80 78 78 75 73 72 70 72 74 74 75 75 72 69 68 68 67 64 61 61 61 61 63 63 62 63 64 62 62 64 67 66 63 63 64 63 60 59 54 50 51 52 55 58 59 60 61 63 65 66 68 69 71 74 75 75
105 105 101 101 104 106 107 111 113 114 114 106 96 91 93 96 95 91 89 89 86 81 77 76 78 80 78 79 82 84 86 86 83 79 77 75 73 73 73 74 76 76 76 75 72 71 72 71 70 66 63 62 63 63 63 64 63 63 63 63 65 68 69 71 68 66 66 64 62 62 57 52 54 56 57 59 62 64 66 67 69 70 72 73 75 76 77 78
107 104 101 101 103 104 106 109 111 113 114 109 99 93 93 94 92 91 91 89 87 83 80 78 78 79 78 78 81 84 86 87 86 81 78 76 75 74 73 74 75 76 76 75 73 74 76 75 74 71 67 65 64 62 62 63 63 63 64 67 70 70 71 72 70 67 65 61 61 63 57 52 54 58 60 63 66 68 70 71 73 75 76 77 79 79 79 79
109 108 107 106 105 107 110 111 111 110 109 108 105 101 96 92 90 89 89 89 87 84 81 79 78 79 79 80 82 84 86 88 87 84 82 81 78 76 74 73 73 75 76 76 77 79 80 80 78 75 71 67 63 62 62 64 66 67 69 72 72 71 72 73 72 70 64 58 61 63 57 55 56 58 61 65 68 71 73 74 76 78 79 80 80 80 79 79
110 109 110 110 108 110 113 112 110 108 106 106 107 105 102 98 94 90 88 89 90 89 87 84 81 82 83 83 83 84 86 87 86 85 85 84 82 79 78 77 76 76 77 77 79 81 83 83 82 79 75 70 66 65 65 68 71 72 72 72 72 73 74 73 74 71 63 60 65 65 62 63 63 61 63 67 69 71 73 75 76 78 79 80 80 80 80 80
110 111 111 111 111 111 112 110 109 108 106 105 106 105 104 103 100 97 95 93 91 90 90 90 89 88 86 84 82 81 82 84 86 86 85 83 82 81 82 82 81 79 79 78 80 82 84 86 84 82 79 75 72 70 70 72 74 74 74 74 75 75 75 75 74 70 66 69 69 66 67 70 69 68 69 71 72 73 74 76 77 78 79 79 79 79 79 80
113 114 113 113 113 112 111 109 108 106 104 103 103 102 102 102 102 102 102 99 95 92 91 93 94 92 88 84 81 80 81 83 86 87 85 83 83 82 83 84 83 82 81 81 82 84 86 87 85 84 83 80 79 77 76 75 76 77 78 78 77 78 78 78 73 70 75 76 69 66 72 75 73 74 75 75 76 77 78 79 79 78 78 78 78 78 78 80
117 116 115 115 114 113 110 108 107 105 103 103 103 102 102 102 103 104 104 101 99 98 97 97 95 91 87 85 84 83 83 85 85 84 83 83 82 82 83 84 84 84 83 83 85 86 88 88 85 86 86 83 83 82 79 77 78 79 80 80 80 80 80 79 76 76 81 79 71 72 77 77 78 80 80 80 81 81 81 82 81 80 79 78 78 79 79 80
121 118 116 116 116 113 110 109 108 108 106 106 105 104 104 105 105 105 104 103 103 103 102 100 95 90 88 88 88 88 87 85 83 81 81 82 83 83 84 84 84 85 85 85 86 88 90 88 87 89 87 84 85 84 81 80 80 79 80 80 80 80 80 80 79 79 82 80 77 79 80 79 81 81 81 83 84 84 84 84 84 83 82 80 79 79 81 82
126 121 118 118 118 116 113 111 111 111 111 110 109 107 106 106 105 105 105 106 105 104 104 101 96 92 91 92 93 92 89 85 83 82 83 85 85 83 84 84 84 84 85 86 87 89 91 90 89 90 89 86 85 85 85 84 84 83 82 79 76 77 78 80 80 81 83 81 80 83 82 79 80 80 81 84 85 85 85 85 85 84 82 81 81 81 83 84
130 126 122 120 119 118 116 114 114 114 114 113 112 110 109 107 106 106 107 108 106 105 105 103 98 96 96 97 97 94 89 86 86 86 87 88 85 84 84 85 84 84 85 86 87 88 90 90 89 91 91 87 85 88 89 88 90 90 84 76 75 77 79 80 81 83 84 82 82 84 82 78 80 82 82 83 83 83 83 83 83 83 82 83 84 85 87 87
133 130 128 125 123 121 119 117 116 116 117 116 114 112 112 110 109 109 110 112 110 108 107 104 101 101 102 102 100 96 91 90 91 90 89 90 88 86 86 86 85 84 85 85 86 88 89 90 89 90 91 88 87 89 90 92 95 92 80 74 77 80 80 81 82 83 84 84 85 84 81 80 83 83 83 83 84 84 83 82 83 83 84 87 88 89 90 90
Wind_Direction
232 232 233 234 234 235 236 236 237 237 237 238 239 240 241 242 243 244 245 246 247 248 249 250 251 252 253 254 255 256 258 259 261 263 264 265 265 265 265 265 266 267 267 268 269 269 270 270 271 272 272 272 273 273 273 273 274 274 274 274 273 272 269 264 261 257 255 256 257 256 254 259 266 268 268 266 263 262 260 259 258 256 254 253 251 251 252 256
233 233 233 233 234 235 236 236 237 238 238 238 239 240 241 242 243 244 245 246 247 248 249 250 251 253 254 255 256 257 258 259 262 263 264 265 266 265 265 265 265 265 265 265 266 266 266 267 268 268 269 269 269 270 271 271 271 271 272 272 271 269 266 262 260 258 257 255 257 258 255 257 263 267 268 267 264 262 261 259 258 258 257 257 258 258 259 260
233 233 234 234 235 235 236 237 237 239 239 240 240 240 241 242 243 244 245 246 247 248 249 250 251 252 254 255 256 257 258 260 261 263 264 264 265 265 265 264 264 264 263 263 264 264 265 265 265 266 266 266 267 267 268 268 269 268 268 268 268 265 262 259 258 259 258 257 257 260 260 259 260 264 268 269 267 265 266 264 260 261 261 263 265 266 267 267
234 234 234 234 235 236 236 237 238 239 240 241 241 241 242 242 243 244 245 246 247 248 248 249 250 252 253 255 256 257 258 260 261 262 263 264 265 265 265 264 263 263 263 263 262 262 263 263 263 264 264 265 265 265 265 266 266 267 267 266 265 262 260 258 256 258 258 257 258 260 262 262 261 263 266 269 269 268 270 270 268 267 266 265 267 268 269 269
234 235 235 235 235 236 237 238 238 239 240 241 242 243 243 243 244 244 245 246 247 248 248 249 250 251 252 254 255 257 258 260 261 261 262 263 264 264 264 264 264 263 263 262 262 261 261 261 262 262 263 263 263 264 264 264 264 265 265 265 264 262 260 258 256 256 257 256 256 259 262 264 263 263 266 268 269 270 272 274 274 274 272 268 266 267 268 268
235 236 236 236 236 236 237 238 239 240 241 242 243 244 245 245 245 245 246 246 247 247 248 249 250 251 252 253 255 256 258 259 260 261 262 263 264 264 264 264 264 263 263 262 261 261 260 260 261 262 263 263 264 264 264 264 264 264 263 263 263 262 261 259 257 256 256 256 256 258 261 263 263 263 265 266 268 271 273 275 278 278 277 275 271 269 268 268
236 237 237 237 237 237 237 238 239 240 241 242 243 245 246 246 246 247 247 247 247 248 248 249 250 251 252 253 254 255 257 258 259 261 262 263 263 264 265 265 264 264 263 262 261 260 260 260 261 261 263 264 265 265 265 265 265 264 264 263 263 263 263 262 260 258 257 257 257 259 261 262 263 264 265 266 266 268 272 275 277 278 279 278 276 273 271 271
237 238 238 238 238 238 238 238 239 240 241 242 243 245 246 247 248 248 248 248 248 249 249 249 250 251 252 252 253 255 256 258 259 260 261 262 263 264 265 265 265 265 264 264 263 262 261 261 261 262 263 264 265 266 267 267 267 266 266 265 264 264 264 264 262 260 259 259 259 260 260 263 264 265 266 267 267 266 268 272 274 275 276 276 276 275 274 274
237 238 239 239 240 240 240 239 240 240 241 242 243 244 245 247 248 248 249 250 249 250 250 250 250 251 252 252 253 254 255 257 258 259 260 261 263 264 265 265 265 265 265 265 265 264 263 262 263 263 264 265 266 267 268 268 269 268 268 267 266 266 266 266 265 263 262 262 262 262 261 263 264 266 267 268 269 268 267 268 270 271 272 272 272 273 275 275
236 237 238 239 240 241 241 241 241 241 241 242 243 244 245 246 248 249 249 250 250 251 251 251 251 251 252 253 253 254 255 257 258 258 259 261 262 264 265 265 265 265 265 266 266 265 265 264 264 264 265 266 266 267 268 269 269 270 270 269 269 268 267 266 265 265 266 266 265 265 263 262 263 265 267 269 270 270 268 267 268 270 270 270 272 273 276 278
236 237 238 239 240 241 241 242 242 242 242 242 243 244 244 245 246 248 249 250 251 251 252 252 252 252 253 253 254 255 255 256 258 258 259 260 262 263 264 264 265 265 265 265 266 266 266 266 266 266 266 266 267 268 268 268 269 270 270 270 270 269 268 266 265 265 268 270 270 267 263 262 263 265 267 268 270 270 269 268 268 269 270 272 274 276 278 281
236 236 237 238 239 240 241 242 242 242 242 242 243 244 244 245 245 246 248 249 250 251 252 252 253 253 253 254 254 254 255 256 257 258 259 259 261 262 263 264 264 264 264 265 266 266 267 267 266 266 267 267 268 268 268 268 269 270 270 270 270 268 268 266 265 267 270 271 271 269 266 265 263 265 267 268 269 269 269 269 270 270 271 274 276 279 281 283
237 237 237 238 239 239 240 241 241 242 242 243 243 244 244 245 245 245 246 248 249 249 250 252 253 253 254 255 254 254 255 256 257 258 258 259 260 261 263 263 263 263 263 264 264 265 266 266 267 267 267 268 268 268 268 269 270 271 272 272 270 268 266 265 266 270 271 271 271 269 268 267 265 265 267 268 268 269 269 270 271 272 273 274 276 279 280 282
239 239 238 238 239 239 240 240 241 241 242 242 243 243 244 245 245 245 245 246 247 248 249 250 251 252 253 254 254 254 254 255 256 257 258 259 259 260 261 262 262 263 262 263 263 264 265 266 267 267 268 268 269 268 269 270 271 272 274 274 271 266 264 265 269 270 271 272 272 271 268 268 268 267 267 269 270 270 270 271 272 273 273 274 275 277 278 279
240 240 240 239 239 240 240 241 241 241 242 242 242 243 244 244 245 245 245 245 246 247 247 248 249 250 252 254 254 254 254 254 255 256 257 258 258 259 259 260 261 262 262 261 261 262 263 265 266 267 268 268 268 268 268 271 273 275 275 273 268 264 265 269 271 270 270 271 272 272 270 269 269 268 268 269 270 272 273 273 273 274 274 274 275 276 278 279
238 240 240 240 240 240 241 241 242 242 243 243 243 243 243 244 244 245 245 245 245 246 246 247 248 249 250 252 253 253 253 254 254 255 256 256 257 258 258 259 260 261 261 260 260 260 261 263 264 266 268 268 267 266 267 271 273 275 273 268 266 266 268 270 270 270 270 270 270 271 270 269 269 270 270 269 270 273 274 274 274 275 275 275 275 277 279 281
236 238 239 240 240 241 241 242 243 244 244 245 245 245 245 245 244 244 244 245 245 245 245 246 247 247 248 250 252 252 252 252 253 254 254 255 256 257 258 259 259 260 260 259 258 258 259 260 262 265 267 267 265 264 266 270 272 272 269 266 267 269 269 269 269 269 269 269 270 270 269 269 269 270 269 269 270 272 273 273 274 275 276 275 275 276 278 281
235 237 239 240 240 241 242 243 244 244 245 246 246 247 247 247 246 245 245 244 244 245 245 245 245 245 245 248 250 251 251 251 252 252 253 255 256 257 258 258 258 258 258 258 257 257 257 259 261 264 265 264 263 264 266 268 268 267 267 268 270 270 269 268 268 268 267 267 267 268 269 269 269 269 268 269 271 271 272 273 274 274 274 274 273 274 277 280
235 236 238 239 240 241 242 242 243 244 245 246 247 247 248 248 248 247 246 245 245 244 244 244 245 244 244 246 248 250 250 250 251 251 252 253 255 256 257 257 257 256 257 256 256 256 256 257 260 262 262 262 263 264 265 266 266 265 267 269 270 271 270 268 267 267 266 266 265 265 267 268 268 268 269 270 271 271 272 273 274 273 272 272 271 273 276 279
235 235 236 237 239 240 241 242 243 244 245 246 247 247 248 248 248 247 247 246 245 244 244 244 245 245 244 246 248 249 250 250 251 252 252 252 253 254 255 256 256 255 255 255 255 256 255 255 259 259 259 261 263 263 263 263 264 264 265 268 270 271 270 269 267 266 266 266 266 265 265 267 267 267 269 271 271 272 273 273 273 273 273 273 271 273 276 279
236 235 236 236 237 238 240 241 242 244 245 246 247 248 248 248 248 247 246 245 244 245 245 245 246 246 246 246 248 249 250 250 251 252 252 252 252 252 254 254 254 255 255 254 254 255 254 254 256 257 257 260 261 262 262 261 261 263 264 265 268 269 269 269 268 266 265 264 265 265 265 266 267 267 268 271 272 272 273 272 272 273 274 274 273 274 277 280
238 237 237 237 237 237 238 240 241 243 244 246 247 248 248 248 248 247 246 246 245 245 245 245 246 247 247 247 249 250 251 252 252 253 253 253 253 253 253 253 253 253 254 254 254 254 254 254 255 256 257 258 259 261 261 261 261 261 261 263 266 267 267 268 268 268 265 261 262 265 266 267 269 268 267 270 273 273 272 272 272 273 274 273 273 274 276 279
238 238 238 238 238 237 238 239 240 242 243 245 246 247 247 248 248 247 247 246 245 246 245 245 246 246 247 249 249 250 251 252 252 253 254 254 253 253 252 253 253 252 254 255 254 253 253 254 255 257 258 258 258 259 260 261 260 260 261 262 264 264 266 267 268 268 265 261 261 263 265 269 272 271 270 270 272 272 272 272 273 274 275 275 275 275 276 277
233 235 236 237 238 238 238 239 240 242 243 244 245 246 247 247 248 247 247 246 245 246 246 245 245 246 247 248 249 250 251 252 252 253 254 254 253 253 253 253 253 253 254 255 254 254 253 254 257 257 257 258 258 258 260 260 260 261 261 261 261 263 265 266 266 266 266 265 263 262 263 269 272 272 272 272 273 274 274 275 275 275 276 276 277 276 276 277
230 231 233 235 236 237 237 238 240 241 241 242 243 244 245 246 246 246 246 245 243 244 246 246 246 246 246 247 248 250 250 250 251 252 253 254 254 254 253 253 254 254 254 254 255 255 255 256 257 257 257 258 259 260 261 260 259 259 261 262 261 261 263 264 264 264 265 266 266 264 263 265 271 273 274 273 273 275 277 277 277 276 276 277 278 278 279 279
230 231 232 232 233 234 236 236 238 240 240 241 242 242 243 244 245 244 245 244 240 241 245 246 246 246 247 248 248 248 248 249 251 252 252 254 254 254 254 254 255 255 255 255 255 255 256 256 256 258 258 259 259 260 260 260 259 260 262 263 261 260 262 264 265 264 264 264 266 269 268 263 266 273 275 274 274 275 276 277 277 278 278 279 280 280 280 280
231 232 232 232 233 233 234 235 237 239 240 241 242 242 243 244 244 244 244 242 238 238 244 247 248 247 247 248 248 249 249 249 250 251 252 253 253 254 255 255 256 256 256 256 256 256 256 256 257 258 259 259 260 260 260 260 260 261 262 262 262 262 262 263 263 264 264 264 264 271 272 266 262 269 272 274 275 275 275 276 277 279 279 280 280 280 280 280
232 233 233 233 234 234 233 233 235 237 239 241 241 242 243 244 245 245 245 242 236 235 242 246 249 248 247 248 249 251 250 249 249 251 252 253 253 255 255 256 256 257 257 257 257 256 256 256 257 257 258 259 260 260 260 261 262 261 260 262 263 263 262 262 263 264 265 265 266 269 271 269 263 263 269 275 277 276 276 277 278 278 279 279 279 279 279 279
234 235 236 236 237 237 235 233 234 237 239 240 241 241 242 243 244 245 246 243 237 235 239 244 248 249 249 249 250 251 251 249 249 251 253 254 255 255 256 255 255 256 257 258 258 257 257 257 257 258 258 258 259 259 261 262 263 262 261 262 263 263 263 263 263 264 264 266 268 267 267 267 264 262 268 274 275 275 276 278 279 279 278 279 279 280 279 279
233 235 237 238 239 239 237 235 234 237 239 240 241 241 241 241 242 244 244 242 241 239 239 242 246 248 249 249 249 250 250 250 249 250 252 254 255 255 256 256 256 256 257 258 259 259 258 258 259 259 259 259 259 260 261 262 262 262 262 262 263 263 264 265 265 266 265 265 265 264 264 265 265 267 270 270 271 274 277 278 278 278 278 278 279 280 280 280
231 233 235 236 237 239 238 237 236 238 240 240 241 241 241 241 241 241 241 241 242 239 237 242 246 249 251 252 252 251 251 251 250 251 252 253 254 255 256 257 257 258 259 260 261 261 260 260 261 262 262 262 262 262 262 262 262 262 262 263 264 264 265 266 266 266 265 263 261 262 264 266 269 270 269 267 269 273 275 275 275 276 276 277 278 279 279 279
230 232 235 235 235 238 239 239 238 239 240 240 241 241 241 241 240 240 240 241 241 236 235 241 246 249 253 254 255 255 254 253 252 252 252 252 254 255 257 258 260 261 261 261 261 261 261 262 263 264 265 265 264 263 263 263 263 263 264 264 265 266 266 266 266 265 265 263 262 263 265 268 272 272 268 265 266 270 272 273 274 274 275 276 277 277 278 278
231 232 234 236 236 238 241 242 241 241 241 241 242 242 241 241 240 241 241 242 241 237 236 239 241 244 249 252 254 256 256 255 254 253 253 253 254 256 258 259 261 261 261 260 261 262 262 263 265 265 265 265 265 265 265 265 266 266 266 266 266 267 267 265 265 264 264 265 265 264 265 268 271 271 269 267 266 267 270 271 272 273 274 275 275 275 275 276
232 232 234 235 237 238 241 242 242 242 242 242 242 243 243 242 240 241 242 240 240 238 237 238 238 240 245 249 252 254 255 255 256 255 255 255 256 256 257 258 259 260 260 260 261 263 263 263 264 264 263 264 265 265 266 266 267 267 267 267 267 268 267 263 261 262 263 264 264 265 267 268 268 266 267 269 269 268 268 270 272 273 274 274 274 274 274 276
234 234 234 235 236 238 239 240 241 241 243 243 244 243 243 243 242 242 242 240 240 240 239 239 239 238 241 245 248 251 253 254 255 255 256 256 257 257 257 258 259 260 261 261 261 262 263 263 264 264 264 264 264 265 265 265 265 266 267 267 266 265 264 262 261 262 262 261 262 265 267 267 265 264 265 268 270 269 269 270 272 273 274 274 274 275 276 278
234 235 235 234 235 236 237 238 239 240 242 243 245 244 244 244 244 242 241 240 240 240 241 240 239 239 239 241 244 247 250 252 253 254 255 256 257 259 260 260 260 260 261 262 261 261 262 262 263 264 265 265 265 264 264 264 264 265 265 266 264 263 264 265 265 265 264 264 263 263 264 265 265 265 266 267 267 268 269 270 271 273 273 274 276 278 279 280
234 235 236 235 233 234 235 236 238 240 242 244 245 246 246 246 245 243 241 241 241 240 242 242 241 240 240 239 242 245 248 250 252 253 255 256 258 259 260 260 261 261 261 261 261 261 262 261 261 263 263 264 264 264 264 265 265 265 264 264 264 264 267 269 268 268 268 267 264 262 261 263 265 266 266 265 265 266 269 271 272 273 274 275 278 279 279 279
234 234 235 234 233 233 234 236 238 240 242 244 246 247 247 246 246 245 242 240 241 241 243 244 243 243 242 241 241 243 246 248 250 252 254 255 257 258 259 260 261 262 261 261 261 261 261 260 258 260 262 261 261 262 263 265 265 264 263 264 266 267 269 269 269 269 268 268 266 264 262 262 265 266 266 266 267 268 270 272 273 274 275 277 277 277 277 277
234 234 233 234 234 234 235 237 239 240 241 243 245 246 247 247 247 246 243 240 241 242 243 244 245 244 243 243 242 242 245 247 248 250 252 253 255 256 258 259 261 261 261 261 261 259 259 259 259 259 260 261 261 262 262 263 263 264 264 265 267 268 268 267 268 269 268 267 266 265 263 263 265 267 267 269 270 271 272 273 274 274 275 276 275 275 275 276
233 234 233 233 235 235 236 238 240 241 242 242 244 245 245 246 246 245 244 243 241 242 242 243 245 245 244 243 243 242 243 244 246 248 251 252 254 255 256 258 260 260 260 260 260 260 260 261 261 259 259 262 264 264 263 263 264 265 266 265 267 268 268 268 268 269 269 268 266 265 265 265 267 269 270 271 271 272 273 272 272 273 273 274 274 274 275 276
232 234 232 233 236 237 237 239 241 243 244 243 244 245 244 244 246 246 246 246 245 243 243 243 245 246 245 244 244 242 242 243 244 245 248 250 253 254 255 256 257 258 258 259 261 262 263 262 262 261 262 263 264 263 263 263 264 265 266 267 268 269 270 269 268 267 268 269 269 269 269 269 270 270 271 271 271 270 270 270 270 271 271 272 273 274 275 277
232 233 232 233 236 238 239 240 241 243 244 244 243 245 244 244 245 246 247 248 248 245 244 244 245 247 246 245 245 243 243 244 244 244 246 248 250 251 252 253 254 255 257 259 262 264 265 264 264 264 263 261 261 262 263 264 265 266 269 270 269 268 268 268 267 267 269 271 273 273 271 271 271 270 269 269 270 269 269 269 270 270 271 272 273 275 276 277
234 234 233 233 235 238 240 241 241 242 244 244 242 242 243 244 244 245 245 246 247 246 246 245 246 246 246 246 245 244 244 244 244 244 245 245 246 248 249 250 252 254 256 259 262 263 264 265 265 264 263 262 263 264 266 268 269 269 269 267 265 266 268 269 269 269 269 271 273 274 273 273 271 270 268 267 267 267 268 270 271 272 272 273 274 275 277 278
235 236 235 234 235 238 240 241 241 242 244 245 244 241 241 243 244 245 245 245 245 246 246 246 246 247 247 246 245 245 244 245 245 244 245 245 245 246 247 249 251 253 256 258 260 261 263 264 265 265 265 265 265 266 267 267 267 265 264 264 266 268 269 270 271 270 270 272 273 274 275 275 271 270 270 269 268 268 269 270 271 272 273 273 275 276 278 280
235 236 237 236 236 237 239 240 242 243 244 246 246 244 242 241 242 243 244 245 245 245 245 246 246 247 247 246 245 245 245 246 246 246 246 247 247 247 248 249 251 252 255 256 258 260 262 263 264 266 266 266 265 264 264 264 263 263 264 266 268 268 269 270 271 272 274 274 272 273 275 275 273 273 272 272 272 271 271 270 270 271 272 274 276 278 279 280
234 235 237 237 237 237 239 240 241 243 243 244 246 246 245 243 243 243 243 244 244 245 246 246 246 246 246 247 247 247 247 247 247 247 247 248 249 249 249 250 250 251 252 254 256 259 261 262 263 265 265 265 263 262 261 262 263 265 266 267 267 268 269 270 272 275 276 273 271 274 275 275 275 274 273 273 273 273 272 272 271 272 273 275 277 278 279 279
232 234 235 236 237 237 238 239 240 241 242 243 245 246 246 245 244 244 243 243 244 245 246 246 245 245 246 248 249 249 248 247 247 247 248 249 249 250 250 250 251 251 251 252 254 256 258 260 261 262 263 263 262 261 261 262 263 265 266 266 267 269 270 271 274 275 274 273 274 276 276 276 276 275 274 273 273 273 273 273 274 274 276 277 278 279 278 278
230 232 234 236 237 237 236 237 239 241 242 243 244 245 245 245 245 246 245 245 245 245 246 247 247 247 247 249 250 250 249 248 248 248 249 251 251 251 251 251 251 251 251 252 253 254 255 257 258 260 260 261 261 261 262 262 263 264 265 266 267 268 270 272 274 274 273 275 277 275 274 274 274 274 275 275 274 274 273 273 274 276 277 278 279 278 277 278
230 231 232 234 236 237 236 236 237 239 240 242 243 244 245 245 246 247 248 247 246 246 246 247 249 250 250 249 249 249 248 249 250 250 251 251 251 251 251 251 251 251 251 251 252 253 255 255 256 257 258 259 261 262 263 263 263 263 264 265 267 269 271 273 273 274 274 275 274 273 272 273 274 275 276 275 274 273 272 273 275 276 277 278 278 278 278 278
230 230 231 233 235 236 236 236 237 238 239 240 242 243 244 245 246 247 248 248 248 248 248 248 248 250 250 250 249 248 248 249 251 252 252 251 251 251 252 252 252 252 252 252 252 253 254 255 256 258 259 259 261 262 263 263 264 263 263 264 267 270 272 272 273 272 272 272 272 272 272 273 274 274 273 273 273 274 274 275 275 276 277 277 277 278 278 278
230 230 230 232 234 235 236 236 237 239 240 241 242 242 243 244 245 246 247 247 247 247 248 248 248 249 249 250 250 249 250 251 251 252 252 253 253 253 254 254 254 253 253 253 253 254 255 256 257 259 260 260 261 262 263 264 264 263 264 267 269 270 270 271 271 270 271 272 271 271 272 273 272 272 273 274 275 276 276 276 277 277 277 277 276 277 277 277
230 230 230 231 233 235 235 236 237 238 240 241 242 242 243 243 244 244 246 247 247 247 248 249 249 250 250 251 252 252 252 252 252 253 254 255 255 255 255 256 255 255 255 255 255 256 257 258 259 260 261 262 262 263 264 264 264 264 267 270 270 269 269 270 270 270 271 271 271 272 273 273 273 274 275 276 276 276 276 276 276 276 275 275 276 276 277 277